TimeCST,TemperatureF,Dew PointF,Humidity,Sea Level PressureIn,VisibilityMPH,Wind Direction,Wind SpeedMPH,Gust SpeedMPH,PrecipitationIn,Events,Conditions,WindDirDegrees,DateUTC
12:15 AM,41.0,37.4,87,30.19,10.0,Calm,Calm,-,N/A,,Clear,0,2012-11-09 06:15:00
12:35 AM,41.0,37.4,87,30.19,9.0,Calm,Calm,-,N/A,,Clear,0,2012-11-09 06:35:00
12:55 AM,41.0,35.6,81,30.20,9.0,Calm,Calm,-,N/A,,Clear,0,2012-11-09 06:55:00
1:15 AM,41.0,35.6,81,30.20,9.0,Calm,Calm,-,N/A,,Clear,0,2012-11-09 07:15:00
1:55 AM,39.2,35.6,87,30.21,9.0,Calm,Calm,-,N/A,,Clear,0,2012-11-09 07:55:00
2:15 AM,41.0,37.4,87,30.20,9.0,Calm,Calm,-,N/A,,Clear,0,2012-11-09 08:15:00
2:35 AM,41.0,37.4,87,30.21,8.0,Calm,Calm,-,N/A,,Clear,0,2012-11-09 08:35:00
2:55 AM,41.0,37.4,87,30.21,8.0,Calm,Calm,-,N/A,,Clear,0,2012-11-09 08:55:00
3:15 AM,41.0,37.4,87,30.21,9.0,Calm,Calm,-,N/A,,Clear,0,2012-11-09 09:15:00
3:35 AM,41.0,37.4,87,30.21,7.0,Calm,Calm,-,N/A,,Clear,0,2012-11-09 09:35:00
3:55 AM,41.0,37.4,87,30.22,8.0,Calm,Calm,-,N/A,,Clear,0,2012-11-09 09:55:00
4:15 AM,41.0,37.4,87,30.22,7.0,Calm,Calm,-,N/A,,Clear,0,2012-11-09 10:15:00
4:35 AM,41.0,37.4,87,30.23,8.0,Calm,Calm,-,N/A,,Clear,0,2012-11-09 10:35:00
4:55 AM,42.8,37.4,81,30.23,8.0,Calm,Calm,-,N/A,,Clear,0,2012-11-09 10:55:00
5:15 AM,42.8,37.4,81,30.24,8.0,Calm,Calm,-,N/A,,Clear,0,2012-11-09 11:15:00
5:35 AM,42.8,37.4,81,30.23,7.0,Calm,Calm,-,N/A,,Clear,0,2012-11-09 11:35:00
5:55 AM,42.8,37.4,81,30.24,8.0,Calm,Calm,-,N/A,,Clear,0,2012-11-09 11:55:00
6:15 AM,41.0,37.4,87,30.24,8.0,Calm,Calm,-,N/A,,Clear,0,2012-11-09 12:15:00
6:35 AM,41.0,37.4,87,30.25,7.0,Calm,Calm,-,N/A,,Clear,0,2012-11-09 12:35:00
6:55 AM,42.8,37.4,81,30.25,7.0,Calm,Calm,-,N/A,,Clear,0,2012-11-09 12:55:00
7:15 AM,44.6,37.4,76,30.26,7.0,South,3.5,-,N/A,,Clear,170,2012-11-09 13:15:00
7:35 AM,44.6,37.4,76,30.27,7.0,South,3.5,-,N/A,,Clear,180,2012-11-09 13:35:00
7:55 AM,46.4,37.4,71,30.27,8.0,South,4.6,-,N/A,,Clear,190,2012-11-09 13:55:00
8:15 AM,50.0,39.2,66,30.28,9.0,SSW,6.9,-,N/A,,Clear,200,2012-11-09 14:15:00
8:35 AM,50.0,39.2,66,30.28,8.0,Calm,Calm,-,N/A,,Clear,0,2012-11-09 14:35:00
8:55 AM,51.8,39.2,62,30.28,8.0,South,3.5,-,N/A,,Clear,190,2012-11-09 14:55:00
9:15 AM,53.6,39.2,58,30.29,8.0,SW,5.8,-,N/A,,Clear,230,2012-11-09 15:15:00
9:35 AM,55.4,39.2,54,30.29,9.0,SW,6.9,-,N/A,,Clear,220,2012-11-09 15:35:00
9:55 AM,57.2,39.2,51,30.29,9.0,SW,8.1,-,N/A,,Clear,230,2012-11-09 15:55:00
10:15 AM,59.0,39.2,48,30.28,9.0,SW,6.9,-,N/A,,Clear,220,2012-11-09 16:15:00
10:55 AM,60.8,39.2,45,30.27,9.0,SW,9.2,-,N/A,,Clear,230,2012-11-09 16:55:00
11:15 AM,62.6,39.2,42,30.26,9.0,South,5.8,-,N/A,,Clear,180,2012-11-09 17:15:00
11:35 AM,62.6,39.2,42,30.25,9.0,SSW,4.6,-,N/A,,Clear,210,2012-11-09 17:35:00
11:55 AM,64.4,41.0,42,30.23,10.0,SW,10.4,-,N/A,,Clear,220,2012-11-09 17:55:00
12:15 PM,64.4,41.0,42,30.22,9.0,SSW,5.8,-,N/A,,Clear,200,2012-11-09 18:15:00
12:35 PM,66.2,39.2,37,30.21,9.0,SW,6.9,-,N/A,,Clear,230,2012-11-09 18:35:00
12:55 PM,66.2,39.2,37,30.20,9.0,SSW,5.8,-,N/A,,Clear,200,2012-11-09 18:55:00
1:15 PM,66.2,37.4,35,30.19,9.0,SW,4.6,-,N/A,,Clear,220,2012-11-09 19:15:00
1:35 PM,66.2,39.2,37,30.19,8.0,South,3.5,16.1,N/A,,Clear,190,2012-11-09 19:35:00
1:55 PM,68.0,39.2,35,30.18,10.0,Calm,Calm,-,N/A,,Clear,0,2012-11-09 19:55:00
2:15 PM,68.0,39.2,35,30.17,9.0,SSW,4.6,-,N/A,,Clear,210,2012-11-09 20:15:00
2:35 PM,68.0,37.4,33,30.17,10.0,SSW,3.5,-,N/A,,Clear,200,2012-11-09 20:35:00
2:55 PM,68.0,37.4,33,30.17,9.0,SSE,3.5,-,N/A,,Clear,160,2012-11-09 20:55:00
3:15 PM,68.0,41.0,37,30.17,10.0,SE,4.6,-,N/A,,Clear,140,2012-11-09 21:15:00
3:35 PM,66.2,39.2,37,30.17,9.0,Calm,Calm,-,N/A,,Clear,0,2012-11-09 21:35:00
3:55 PM,66.2,39.2,37,30.16,9.0,SSE,4.6,-,N/A,,Clear,150,2012-11-09 21:55:00
4:15 PM,66.2,39.2,37,30.16,9.0,South,3.5,-,N/A,,Clear,170,2012-11-09 22:15:00
4:35 PM,64.4,39.2,40,30.16,8.0,South,3.5,-,N/A,,Clear,180,2012-11-09 22:35:00
5:15 PM,59.0,41.0,51,30.16,10.0,Calm,Calm,-,N/A,,Clear,0,2012-11-09 23:15:00
5:35 PM,59.0,41.0,51,30.17,10.0,South,3.5,-,N/A,,Clear,170,2012-11-09 23:35:00
5:55 PM,57.2,41.0,55,30.16,10.0,Calm,Calm,-,N/A,,Clear,0,2012-11-09 23:55:00
6:35 PM,57.2,41.0,55,30.16,10.0,South,3.5,-,N/A,,Clear,170,2012-11-10 00:35:00
6:55 PM,57.2,41.0,55,30.17,10.0,Calm,Calm,-,N/A,,Clear,0,2012-11-10 00:55:00
7:15 PM,57.2,41.0,55,30.16,10.0,Calm,Calm,-,N/A,,Clear,0,2012-11-10 01:15:00
7:35 PM,57.2,41.0,55,30.17,10.0,Calm,Calm,-,N/A,,Clear,0,2012-11-10 01:35:00
7:55 PM,57.2,41.0,55,30.18,10.0,South,3.5,-,N/A,,Clear,170,2012-11-10 01:55:00
8:15 PM,57.2,41.0,55,30.18,10.0,South,3.5,-,N/A,,Clear,170,2012-11-10 02:15:00
8:35 PM,55.4,41.0,58,30.18,10.0,Calm,Calm,-,N/A,,Clear,0,2012-11-10 02:35:00
8:55 PM,55.4,41.0,58,30.19,10.0,South,4.6,-,N/A,,Clear,180,2012-11-10 02:55:00
9:35 PM,55.4,41.0,58,30.19,10.0,South,3.5,-,N/A,,Clear,170,2012-11-10 03:35:00
9:55 PM,53.6,41.0,62,30.19,10.0,South,3.5,-,N/A,,Clear,170,2012-11-10 03:55:00
10:15 PM,53.6,39.2,58,30.19,9.0,South,4.6,-,N/A,,Clear,170,2012-11-10 04:15:00
10:55 PM,53.6,41.0,62,30.19,9.0,SSE,3.5,-,N/A,,Clear,160,2012-11-10 04:55:00
11:15 PM,53.6,41.0,62,30.19,10.0,South,3.5,-,N/A,,Clear,180,2012-11-10 05:15:00
11:35 PM,53.6,41.0,62,30.19,10.0,SSE,3.5,-,N/A,,Clear,160,2012-11-10 05:35:00
11:55 PM,51.8,41.0,67,30.19,10.0,Calm,Calm,-,N/A,,Clear,0,2012-11-10 05:55:00